Retour au catalogue

COSMOS 252 DEB *

ActifLEO
NORAD 3901·DEBRIS·🇷🇺 Russia

Lancé Nov 1, 1968 depuis Baikonur Cosmodrome

Loading…

Prochains Passages (prochaines 24 heures)

TLE

FraisSource: Space-Track

Époque: Sep 14, 2026, 02:09 UTC

1 03901U 68097BN  26257.09025485  .00000533  00000-0  47535-3 0  9996
2 03901  61.2805 296.8266 0806819 282.9000  68.3129 12.96065674689063

Suivez COSMOS 252 DEB * en temps réel avec AllMySat

Download on the App Store